Weather History for Oscoda, MI

Change the Weather History Date:

Wednesday, July 17, 2013

  Actual Average Record
Temperature  
Mean Temperature 84 °F -  
Max Temperature 97 °F 77 °F 97 °F (2012)
Min Temperature 72 °F 57 °F 49 °F (2014)
Cooling Degree Days 20    
Growing Degree Days 34 (Base 50)    
Moisture  
Dew Point 68 °F    
Average Humidity 61    
Maximum Humidity 93    
Minimum Humidity 30    
Precipitation  
Precipitation 0.00 in - - ()
Sea Level Pressure  
Sea Level Pressure 30.17 in    
Wind  
Wind Speed 6 mph (West)    
Max Wind Speed 13 mph    
Max Gust Speed 20 mph    
Visibility 10 miles    
Events      
Averages and records for this station are not official NWS values.
T = Trace of Precipitation, MM = Missing Value Source: NWS Daily Summary

Daily Weather History Graph

Daily Weather History Graph

Search for Another Location

Airport:

Trip Planner

Search our weather history database for the weather conditions in past years. The results will help you decide how hot, cold, wet, or windy it might be!

Date:

Astronomy

Jul. 17, 2013 Rise Set
Actual Time 6:05 AM EDT 9:13 PM EDT
Civil Twilight 5:30 AM EDT 9:48 PM EDT
Nautical Twilight 4:44 AM EDT 10:33 PM EDT
Astronomical Twilight 3:49 AM EDT 11:28 PM EDT
Moon 3:58 PM EDT (7/17) 1:16 AM EDT (7/17)
Length of Visible Light 16h 18m
Length of Day
15h 08m
Waxing Gibbous, 67% of the Moon is Illuminated
Jul 17
Waxing Gibbous
Jul 22
Full
Jul 29
Last Quarter
Aug 6
New
Aug 14
First Quarter

Hourly Weather History & Observations

Time (EDT) Temp. Heat Index Dew Point Humidity Pressure Visibility Wind Dir Wind Speed Gust Speed Precip Events Conditions
12:14 AM 80.2 °F 84.2 °F 72.1 °F 76% 30.20 in 10.0 mi North - - N/A   Clear
12:34 AM 79.9 °F - 72.1 °F 77% 30.20 in 10.0 mi West 8.1 mph - N/A   Clear
12:54 AM 79.7 °F - 72.0 °F 77% 30.21 in 10.0 mi West 8.1 mph - N/A   Clear
1:14 AM 79.7 °F - 71.8 °F 77% 30.21 in 10.0 mi West 10.4 mph - N/A   Clear
1:34 AM 79.2 °F - 71.8 °F 78% 30.21 in 10.0 mi West 4.6 mph - N/A   Clear
1:54 AM 77.9 °F - 71.8 °F 81% 30.21 in 10.0 mi West 3.5 mph - N/A   Clear
2:14 AM 77.0 °F - 71.6 °F 83% 30.21 in 10.0 mi West 3.5 mph - N/A   Clear
2:34 AM 76.1 °F - 71.6 °F 86% 30.20 in 10.0 mi West 4.6 mph - N/A   Clear
2:54 AM 76.1 °F - 71.2 °F 85% 30.20 in 10.0 mi West 5.8 mph - N/A   Clear
3:14 AM 76.1 °F - 71.1 °F 84% 30.20 in 10.0 mi West 3.5 mph - N/A   Clear
3:34 AM 76.1 °F - 71.8 °F 86% 30.20 in 10.0 mi South 3.5 mph - N/A   Clear
3:54 AM 75.6 °F - 71.6 °F 87% 30.20 in 10.0 mi SSW 3.5 mph - N/A   Clear
4:14 AM 75.2 °F - 71.6 °F 89% 30.21 in 10.0 mi Calm Calm - N/A   Clear
4:34 AM 74.3 °F - 71.1 °F 90% 30.20 in 10.0 mi SW 3.5 mph - N/A   Clear
4:54 AM 73.4 °F - 70.9 °F 92% 30.20 in 10.0 mi WSW 4.6 mph - N/A   Clear
5:14 AM 74.3 °F - 71.2 °F 90% 30.21 in 10.0 mi SSW 3.5 mph - N/A   Clear
5:34 AM 74.3 °F - 71.1 °F 90% 30.21 in 10.0 mi SSW 3.5 mph - N/A   Clear
5:54 AM 73.4 °F - 70.7 °F 91% 30.21 in 10.0 mi SW 5.8 mph - N/A   Clear
6:14 AM 72.9 °F - 70.7 °F 93% 30.22 in 10.0 mi WSW 4.6 mph - N/A   Clear
6:34 AM 73.4 °F - 70.9 °F 92% 30.22 in 10.0 mi Calm Calm - N/A   Clear
6:54 AM 74.5 °F - 71.4 °F 90% 30.22 in 10.0 mi Calm Calm - N/A   Clear
7:14 AM 76.3 °F - 71.8 °F 86% 30.21 in 7.0 mi SW 4.6 mph - N/A   Scattered Clouds
7:34 AM 77.2 °F - 72.0 °F 84% 30.22 in 10.0 mi SW 6.9 mph - N/A   Scattered Clouds
7:54 AM 77.5 °F - 71.8 °F 82% 30.21 in 10.0 mi SW 6.9 mph - N/A   Clear
8:14 AM 78.8 °F - 72.0 °F 79% 30.21 in 10.0 mi WSW 6.9 mph - N/A   Clear
8:34 AM 81.7 °F 86.5 °F 72.3 °F 73% 30.21 in 10.0 mi West 10.4 mph - N/A   Clear
8:54 AM 83.5 °F 89.1 °F 72.3 °F 69% 30.21 in 10.0 mi West 9.2 mph - N/A   Clear
9:14 AM 84.7 °F 91.0 °F 72.5 °F 67% 30.21 in 10.0 mi West 9.2 mph - N/A   Clear
9:34 AM 85.6 °F 92.2 °F 72.5 °F 65% 30.21 in 10.0 mi WNW 6.9 mph - N/A   Clear
9:54 AM 86.7 °F 93.7 °F 72.7 °F 63% 30.21 in 10.0 mi West 8.1 mph - N/A   Clear
10:14 AM 88.7 °F 95.7 °F 72.3 °F 58% 30.21 in 10.0 mi West 8.1 mph - N/A   Clear
10:34 AM 89.8 °F 97.5 °F 72.7 °F 57% 30.21 in 10.0 mi West 8.1 mph - N/A   Clear
10:54 AM 90.0 °F 95.9 °F 70.9 °F 53% 30.21 in 10.0 mi NW 9.2 mph - N/A   Clear
11:14 AM 91.4 °F 97.3 °F 70.3 °F 50% 30.21 in 10.0 mi NW 11.5 mph - N/A   Clear
11:34 AM 90.9 °F 96.2 °F 70.0 °F 50% 30.20 in 10.0 mi WNW 9.2 mph - N/A   Scattered Clouds
11:54 AM 91.4 °F 96.3 °F 69.4 °F 48% 30.20 in 10.0 mi NW 6.9 mph - N/A   Mostly Cloudy
12:14 PM 93.2 °F 97.7 °F 68.0 °F 44% 30.20 in 10.0 mi West 8.1 mph - N/A   Scattered Clouds
12:34 PM 92.8 °F 97.6 °F 68.7 °F 45% 30.20 in 10.0 mi West 9.2 mph - N/A   Scattered Clouds
12:54 PM 93.0 °F 95.9 °F 65.8 °F 41% 30.20 in 10.0 mi WNW 10.4 mph - N/A   Scattered Clouds
1:14 PM 93.2 °F 96.2 °F 66.0 °F 41% 30.20 in 10.0 mi WNW 9.2 mph 18.4 mph N/A   Mostly Cloudy
1:34 PM 92.7 °F 96.2 °F 67.1 °F 43% 30.19 in 10.0 mi WNW 9.2 mph - N/A   Mostly Cloudy
1:54 PM 93.0 °F 95.9 °F 66.2 °F 41% 30.19 in 10.0 mi North 8.1 mph - N/A   Scattered Clouds
2:14 PM 91.9 °F 94.1 °F 65.1 °F 41% 30.18 in 10.0 mi West 4.6 mph - N/A   Scattered Clouds
2:34 PM 94.3 °F 96.7 °F 64.8 °F 38% 30.17 in 10.0 mi WNW 5.8 mph - N/A   Scattered Clouds
2:54 PM 92.7 °F 94.4 °F 64.0 °F 39% 30.16 in 10.0 mi WNW 8.1 mph - N/A   Mostly Cloudy
3:14 PM 93.9 °F 97.0 °F 66.2 °F 40% 30.16 in 10.0 mi NW 8.1 mph - N/A   Mostly Cloudy
3:34 PM 96.3 °F 97.6 °F 63.0 °F 33% 30.15 in 10.0 mi West 11.5 mph - N/A   Scattered Clouds
3:54 PM 94.6 °F 96.8 °F 64.8 °F 37% 30.14 in 10.0 mi NW 10.4 mph - N/A   Mostly Cloudy
4:14 PM 95.5 °F 96.0 °F 61.7 °F 32% 30.14 in 10.0 mi NW 11.5 mph 18.4 mph N/A   Mostly Cloudy
4:34 PM 96.6 °F 97.7 °F 62.6 °F 32% 30.13 in 10.0 mi NW 10.4 mph 17.3 mph N/A   Mostly Cloudy
4:54 PM 97.2 °F 97.6 °F 60.8 °F 30% 30.12 in 10.0 mi West 11.5 mph 19.6 mph N/A   Mostly Cloudy
5:14 PM 95.9 °F 96.6 °F 61.7 °F 32% 30.11 in 10.0 mi NW 10.4 mph - N/A   Scattered Clouds
5:34 PM 96.8 °F 98.0 °F 62.1 °F 32% 30.10 in 10.0 mi NNW 3.5 mph 16.1 mph N/A   Scattered Clouds
5:54 PM 95.9 °F 96.1 °F 60.6 °F 31% 30.10 in 10.0 mi West 10.4 mph 17.3 mph N/A   Scattered Clouds
6:14 PM 95.9 °F 96.1 °F 61.2 °F 31% 30.10 in 10.0 mi West 11.5 mph - N/A   Clear
6:34 PM 95.2 °F 95.5 °F 61.0 °F 32% 30.10 in 10.0 mi WNW 12.7 mph - N/A   Clear
6:54 PM 94.6 °F 95.5 °F 62.1 °F 34% 30.11 in 10.0 mi West 9.2 mph - N/A   Scattered Clouds
7:14 PM 92.8 °F 93.9 °F 62.8 °F 37% 30.11 in 10.0 mi WNW 5.8 mph - N/A   Scattered Clouds
7:34 PM 92.5 °F 93.3 °F 63.0 °F 37% 30.11 in 10.0 mi WNW 5.8 mph - N/A   Scattered Clouds
7:54 PM 91.0 °F 92.6 °F 64.6 °F 41% 30.11 in 10.0 mi WNW 3.5 mph - N/A   Mostly Cloudy
8:14 PM 89.8 °F 92.1 °F 65.7 °F 45% 30.11 in 10.0 mi WNW 4.6 mph - N/A   Mostly Cloudy
8:34 PM 87.8 °F 90.7 °F 67.1 °F 50% 30.11 in 10.0 mi WNW 4.6 mph - N/A   Scattered Clouds
8:54 PM 86.0 °F 88.8 °F 67.3 °F 53% 30.11 in 10.0 mi WNW 4.6 mph - N/A   Clear
9:14 PM 84.4 °F 87.3 °F 67.6 °F 57% 30.11 in 10.0 mi WNW 4.6 mph - N/A   Clear
9:34 PM 83.5 °F 86.0 °F 66.7 °F 57% 30.12 in 10.0 mi NW 6.9 mph - N/A   Clear
9:54 PM 82.6 °F 84.9 °F 66.2 °F 58% 30.12 in 10.0 mi NW 4.6 mph - N/A   Clear
10:14 PM 81.7 °F 84.0 °F 66.4 °F 60% 30.12 in 10.0 mi Calm Calm - N/A   Clear
10:34 PM 81.0 °F 83.2 °F 66.2 °F 61% 30.12 in 10.0 mi Calm Calm - N/A   Clear
10:54 PM 81.5 °F 83.9 °F 66.7 °F 61% 30.12 in 10.0 mi Calm Calm - N/A   Clear
11:14 PM 79.5 °F - 66.6 °F 64% 30.11 in 10.0 mi Calm Calm - N/A   Clear
11:34 PM 78.4 °F - 68.2 °F 71% 30.13 in 10.0 mi Calm Calm - N/A   Clear
11:54 PM 78.3 °F - 67.6 °F 70% 30.13 in 10.0 mi Calm Calm - N/A   Clear